Time,TemperatureF,DewpointF,PressureIn,WindDirection,WindDirectionDegrees,WindSpeedMPH,WindSpeedGustMPH,Humidity,HourlyPrecipIn,Conditions,Clouds,dailyrainin,SolarRadiationWatts/m^2,SoftwareType,DateUTC
2013-12-08 00:02:00,21.0,19.0,-100.00,NE,42,4.0,5.0,91,0.00,,,0.00,0.000000,,2013-12-08 08:02:00,
2013-12-08 00:11:00,21.0,19.0,-100.00,NE,42,4.0,5.0,91,0.00,,,0.00,0.000000,,2013-12-08 08:11:00,
2013-12-08 00:43:00,21.0,19.0,-100.00,NE,50,3.0,5.0,91,0.00,,,0.00,0.000000,,2013-12-08 08:43:00,
2013-12-08 00:52:00,21.0,19.0,-100.00,NE,50,3.0,5.0,91,0.00,,,0.00,0.000000,,2013-12-08 08:52:00,
2013-12-08 01:02:00,21.0,19.0,-100.00,NE,50,3.0,5.0,91,0.00,,,0.00,0.000000,,2013-12-08 09:02:00,
2013-12-08 01:11:00,21.0,19.0,-100.00,NE,50,3.0,5.0,91,0.00,,,0.00,0.000000,,2013-12-08 09:11:00,
2013-12-08 01:43:00,21.0,19.0,-100.00,NE,55,2.0,4.0,91,0.00,,,0.00,0.000000,,2013-12-08 09:43:00,
2013-12-08 01:53:00,21.0,19.0,-100.00,NE,55,2.0,4.0,91,0.00,,,0.00,0.000000,,2013-12-08 09:53:00,
2013-12-08 02:03:00,21.0,19.0,-100.00,NE,55,2.0,4.0,91,0.00,,,0.00,0.000000,,2013-12-08 10:03:00,
2013-12-08 02:12:00,21.0,19.0,-100.00,NE,55,2.0,4.0,91,0.00,,,0.00,0.000000,,2013-12-08 10:12:00,
2013-12-08 02:43:00,21.0,19.0,-100.00,NE,56,2.0,4.0,92,0.00,,,0.00,0.000000,,2013-12-08 10:43:00,
2013-12-08 02:53:00,21.0,19.0,-100.00,NE,56,2.0,4.0,92,0.00,,,0.00,0.000000,,2013-12-08 10:53:00,
2013-12-08 03:02:00,21.0,19.0,-100.00,NE,56,2.0,4.0,92,0.00,,,0.00,0.000000,,2013-12-08 11:02:00,
2013-12-08 03:12:00,21.0,19.0,-100.00,NE,56,2.0,4.0,92,0.00,,,0.00,0.000000,,2013-12-08 11:12:00,
2013-12-08 03:43:00,20.0,18.0,-100.00,NE,46,2.0,4.0,92,0.00,,,0.00,0.000000,,2013-12-08 11:43:00,
2013-12-08 03:52:00,20.0,18.0,-100.00,NE,46,2.0,4.0,92,0.00,,,0.00,0.000000,,2013-12-08 11:52:00,
2013-12-08 04:02:00,20.0,18.0,-100.00,NE,46,2.0,4.0,92,0.00,,,0.00,0.000000,,2013-12-08 12:02:00,
2013-12-08 04:12:00,20.0,18.0,-100.00,NE,46,2.0,4.0,92,0.00,,,0.00,0.000000,,2013-12-08 12:12:00,
2013-12-08 04:42:00,19.0,17.0,-100.00,NE,42,3.0,4.0,92,0.00,,,0.00,0.000000,,2013-12-08 12:42:00,
2013-12-08 04:52:00,19.0,17.0,-100.00,NE,42,3.0,4.0,92,0.00,,,0.00,0.000000,,2013-12-08 12:52:00,
2013-12-08 05:01:00,19.0,17.0,-100.00,NE,42,3.0,4.0,92,0.00,,,0.00,0.000000,,2013-12-08 13:01:00,
2013-12-08 05:11:00,19.0,17.0,-100.00,NE,42,3.0,4.0,92,0.00,,,0.00,0.000000,,2013-12-08 13:11:00,
2013-12-08 05:42:00,19.0,17.0,-100.00,NE,50,3.0,4.0,92,0.00,,,0.00,0.000000,,2013-12-08 13:42:00,
2013-12-08 05:52:00,19.0,17.0,-100.00,NE,50,3.0,4.0,92,0.00,,,0.00,0.000000,,2013-12-08 13:52:00,
2013-12-08 06:02:00,19.0,17.0,-100.00,NE,50,3.0,4.0,92,0.00,,,0.00,0.000000,,2013-12-08 14:02:00,
2013-12-08 06:11:00,19.0,17.0,-100.00,NE,50,3.0,4.0,92,0.00,,,0.00,0.000000,,2013-12-08 14:11:00,
2013-12-08 06:42:00,19.0,17.0,-100.00,NE,49,2.0,4.0,91,0.00,,,0.00,0.000000,,2013-12-08 14:42:00,
2013-12-08 06:52:00,19.0,17.0,-100.00,NE,49,2.0,4.0,91,0.00,,,0.00,0.000000,,2013-12-08 14:52:00,
2013-12-08 07:02:00,19.0,17.0,-100.00,NE,49,2.0,4.0,91,0.00,,,0.00,0.000000,,2013-12-08 15:02:00,
2013-12-08 07:11:00,19.0,17.0,-100.00,NE,49,2.0,4.0,91,0.00,,,0.00,0.000000,,2013-12-08 15:11:00,
2013-12-08 07:13:00,19.0,17.0,-100.00,NE,44,3.0,4.0,91,0.00,,,0.00,0.000000,,2013-12-08 15:13:00,
2013-12-08 07:43:00,19.0,17.0,-100.00,NE,44,3.0,4.0,91,0.00,,,0.00,0.000000,,2013-12-08 15:43:00,
2013-12-08 07:54:00,19.0,17.0,-100.00,NE,44,3.0,4.0,91,0.00,,,0.00,0.000000,,2013-12-08 15:54:00,
2013-12-08 08:04:00,19.0,17.0,-100.00,NE,44,3.0,4.0,91,0.00,,,0.00,0.000000,,2013-12-08 16:04:00,
2013-12-08 08:43:00,19.0,17.0,-100.00,NE,47,3.0,4.0,90,0.00,,,0.00,7.000000,,2013-12-08 16:43:00,
2013-12-08 08:53:00,19.0,17.0,-100.00,NE,47,3.0,4.0,90,0.00,,,0.00,7.000000,,2013-12-08 16:53:00,
2013-12-08 09:02:00,19.0,17.0,-100.00,NE,47,3.0,4.0,90,0.00,,,0.00,7.000000,,2013-12-08 17:02:00,
2013-12-08 09:12:00,19.0,17.0,-100.00,NE,47,3.0,4.0,90,0.00,,,0.00,7.000000,,2013-12-08 17:12:00,
2013-12-08 09:43:00,21.0,19.0,-100.00,NE,46,3.0,5.0,91,0.00,,,0.00,22.000000,,2013-12-08 17:43:00,
2013-12-08 09:52:00,21.0,19.0,-100.00,NE,46,3.0,5.0,91,0.00,,,0.00,22.000000,,2013-12-08 17:52:00,
2013-12-08 10:02:00,21.0,19.0,-100.00,NE,46,3.0,5.0,91,0.00,,,0.00,22.000000,,2013-12-08 18:02:00,
2013-12-08 10:12:00,21.0,19.0,-100.00,NE,46,3.0,5.0,91,0.00,,,0.00,22.000000,,2013-12-08 18:12:00,
2013-12-08 10:42:00,26.0,22.0,-100.00,NE,52,3.0,5.0,84,0.00,,,0.00,214.000000,,2013-12-08 18:42:00,
2013-12-08 10:52:00,26.0,22.0,-100.00,NE,52,3.0,5.0,84,0.00,,,0.00,214.000000,,2013-12-08 18:52:00,
2013-12-08 11:02:00,26.0,22.0,-100.00,NE,52,3.0,5.0,84,0.00,,,0.00,214.000000,,2013-12-08 19:02:00,
2013-12-08 11:12:00,26.0,22.0,-100.00,NE,52,3.0,5.0,84,0.00,,,0.00,214.000000,,2013-12-08 19:12:00,
2013-12-08 11:42:00,29.0,23.0,-100.00,NE,40,3.0,5.0,77,0.00,,,0.00,397.000000,,2013-12-08 19:42:00,
2013-12-08 11:52:00,29.0,23.0,-100.00,NE,40,3.0,5.0,77,0.00,,,0.00,397.000000,,2013-12-08 19:52:00,
2013-12-08 12:02:00,29.0,23.0,-100.00,NE,40,3.0,5.0,77,0.00,,,0.00,397.000000,,2013-12-08 20:02:00,
2013-12-08 12:11:00,29.0,23.0,-100.00,NE,40,3.0,5.0,77,0.00,,,0.00,397.000000,,2013-12-08 20:11:00,
2013-12-08 12:42:00,33.0,23.0,-100.00,NE,41,3.0,4.0,65,0.01,,,0.01,451.000000,,2013-12-08 20:42:00,
2013-12-08 12:52:00,33.0,23.0,-100.00,NE,41,3.0,4.0,65,0.01,,,0.01,451.000000,,2013-12-08 20:52:00,
2013-12-08 13:02:00,33.0,23.0,-100.00,NE,41,3.0,4.0,65,0.01,,,0.01,451.000000,,2013-12-08 21:02:00,
2013-12-08 13:11:00,33.0,23.0,-100.00,NE,41,3.0,4.0,65,0.01,,,0.01,451.000000,,2013-12-08 21:11:00,
2013-12-08 13:13:00,35.0,20.0,-100.00,NNE,26,4.0,7.0,55,0.00,,,0.01,448.000000,,2013-12-08 21:13:00,
2013-12-08 13:43:00,35.0,20.0,-100.00,NNE,26,4.0,7.0,55,0.00,,,0.01,448.000000,,2013-12-08 21:43:00,
2013-12-08 13:53:00,35.0,20.0,-100.00,NNE,26,4.0,7.0,55,0.00,,,0.01,448.000000,,2013-12-08 21:53:00,
2013-12-08 14:03:00,35.0,20.0,-100.00,NNE,26,4.0,7.0,55,0.00,,,0.01,448.000000,,2013-12-08 22:03:00,
2013-12-08 14:43:00,36.0,20.0,-100.00,NE,46,4.0,8.0,52,0.00,,,0.01,375.000000,,2013-12-08 22:43:00,
2013-12-08 14:53:00,36.0,20.0,-100.00,NE,46,4.0,8.0,52,0.00,,,0.01,375.000000,,2013-12-08 22:53:00,
2013-12-08 15:03:00,36.0,20.0,-100.00,NE,46,4.0,8.0,52,0.00,,,0.01,375.000000,,2013-12-08 23:03:00,
2013-12-08 15:12:00,36.0,20.0,-100.00,NE,46,4.0,8.0,52,0.00,,,0.01,375.000000,,2013-12-08 23:12:00,
2013-12-08 15:42:00,37.0,17.0,-100.00,NNE,21,4.0,6.0,43,0.00,,,0.01,254.000000,,2013-12-08 23:42:00,
2013-12-08 15:53:00,37.0,17.0,-100.00,NNE,21,4.0,6.0,43,0.00,,,0.01,254.000000,,2013-12-08 23:53:00,
2013-12-08 16:02:00,37.0,17.0,-100.00,NNE,21,4.0,6.0,43,0.00,,,0.01,254.000000,,2013-12-09 00:02:00,
2013-12-08 16:11:00,37.0,17.0,-100.00,NNE,21,4.0,6.0,43,0.00,,,0.01,254.000000,,2013-12-09 00:11:00,
2013-12-08 16:42:00,34.0,14.0,-100.00,NE,41,3.0,6.0,44,0.00,,,-99.99,94.000000,,2013-12-09 00:42:00,
2013-12-08 16:52:00,34.0,14.0,-100.00,NE,41,3.0,6.0,44,0.00,,,-99.99,94.000000,,2013-12-09 00:52:00,
2013-12-08 17:02:00,34.0,14.0,-100.00,NE,41,3.0,6.0,44,0.00,,,-99.99,94.000000,,2013-12-09 01:02:00,
2013-12-08 17:11:00,34.0,14.0,-100.00,NE,41,3.0,6.0,44,0.00,,,-99.99,94.000000,,2013-12-09 01:11:00,
2013-12-08 17:42:00,30.0,19.0,-100.00,NNE,28,2.0,6.0,62,0.00,,,0.01,6.000000,,2013-12-09 01:42:00,
2013-12-08 17:52:00,30.0,19.0,-100.00,NNE,28,2.0,6.0,62,0.00,,,0.01,6.000000,,2013-12-09 01:52:00,
2013-12-08 18:02:00,30.0,19.0,-100.00,NNE,28,2.0,6.0,62,0.00,,,0.01,6.000000,,2013-12-09 02:02:00,
2013-12-08 18:11:00,30.0,19.0,-100.00,NNE,28,2.0,6.0,62,0.00,,,0.01,6.000000,,2013-12-09 02:11:00,
2013-12-08 18:42:00,29.0,18.0,-100.00,NE,53,3.0,6.0,63,0.00,,,0.01,0.000000,,2013-12-09 02:42:00,
2013-12-08 18:53:00,29.0,18.0,-100.00,NE,53,3.0,6.0,63,0.00,,,0.01,0.000000,,2013-12-09 02:53:00,
2013-12-08 19:02:00,29.0,18.0,-100.00,NE,53,3.0,6.0,63,0.00,,,0.01,0.000000,,2013-12-09 03:02:00,
2013-12-08 19:11:00,29.0,18.0,-100.00,NE,53,3.0,6.0,63,0.00,,,0.01,0.000000,,2013-12-09 03:11:00,
2013-12-08 19:13:00,28.0,17.0,-100.00,NNE,21,3.0,7.0,62,0.00,,,0.01,0.000000,,2013-12-09 03:13:00,
2013-12-08 19:43:00,28.0,17.0,-100.00,NNE,21,3.0,7.0,62,0.00,,,0.01,0.000000,,2013-12-09 03:43:00,
2013-12-08 19:53:00,28.0,17.0,-100.00,NNE,21,3.0,7.0,62,0.00,,,0.01,0.000000,,2013-12-09 03:53:00,
2013-12-08 20:03:00,28.0,17.0,-100.00,NNE,21,3.0,7.0,62,0.00,,,0.01,0.000000,,2013-12-09 04:03:00,
2013-12-08 20:43:00,29.0,16.0,-100.00,NE,46,3.0,6.0,58,0.00,,,0.01,0.000000,,2013-12-09 04:43:00,
2013-12-08 20:53:00,29.0,16.0,-100.00,NE,46,3.0,6.0,58,0.00,,,0.01,0.000000,,2013-12-09 04:53:00,
2013-12-08 21:02:00,29.0,16.0,-100.00,NE,46,3.0,6.0,58,0.00,,,0.01,0.000000,,2013-12-09 05:02:00,
2013-12-08 21:12:00,29.0,16.0,-100.00,NE,46,3.0,6.0,58,0.00,,,0.01,0.000000,,2013-12-09 05:12:00,
2013-12-08 21:42:00,28.0,16.0,-100.00,NNE,25,3.0,5.0,61,0.00,,,0.01,0.000000,,2013-12-09 05:42:00,
2013-12-08 21:53:00,28.0,16.0,-100.00,NNE,25,3.0,5.0,61,0.00,,,0.01,0.000000,,2013-12-09 05:53:00,
2013-12-08 22:01:00,28.0,16.0,-100.00,NNE,25,3.0,5.0,61,0.00,,,0.01,0.000000,,2013-12-09 06:01:00,
2013-12-08 22:12:00,28.0,16.0,-100.00,NNE,25,3.0,5.0,61,0.00,,,0.01,0.000000,,2013-12-09 06:12:00,
2013-12-08 22:42:00,27.0,16.0,-100.00,NE,44,2.0,4.0,63,0.00,,,0.01,0.000000,,2013-12-09 06:42:00,
2013-12-08 22:52:00,27.0,16.0,-100.00,NE,44,2.0,4.0,63,0.00,,,0.01,0.000000,,2013-12-09 06:52:00,
2013-12-08 23:02:00,27.0,16.0,-100.00,NE,44,2.0,4.0,63,0.00,,,0.01,0.000000,,2013-12-09 07:02:00,
2013-12-08 23:11:00,27.0,16.0,-100.00,NE,44,2.0,4.0,63,0.00,,,0.01,0.000000,,2013-12-09 07:11:00,
2013-12-08 23:42:00,27.0,19.0,-100.00,NE,55,2.0,3.0,72,0.00,,,0.01,0.000000,,2013-12-09 07:42:00,
2013-12-08 23:52:00,27.0,19.0,-100.00,NE,55,2.0,3.0,72,0.00,,,0.01,0.000000,,2013-12-09 07:52:00,